Location: Grand Mazuras
(45.9128°N, 1.7636°E)
Time: 05:48:48
(UTC+00:00)

Meteor 2-10 Rocket - Pass Details

Date: 18 April 2021
Orbit: 735 x 884 km, 81.2° (Epoch: 15 May)

Event Time Altitude Azimuth Distance (km) Brightness Sun altitude
Rises 19:35:09 0° 187° (S) 3,211 6.5 -9.1°
Reaches altitude 10° 19:37:26 10° 187° (S) 2,308 5.8 -9.4°
Maximum altitude 19:42:39 85° 99° (E) 803 3.6 -10.2°
Drops below altitude 10° 19:48:08 10° 12° (NNE) 2,424 6.3 -11.1°
Sets 19:50:35 0° 12° (NNE) 3,384 7.1 -11.5°
